sat.trackr.live / text

‹ back to catalog

STARLINK-35657

NORAD 66399 · 2025-257V

PAYLOAD ACTIVE UNKNOWN

§ Identity

Operator
Country
US
Launch date
2025-11-09
Launch site
AFETR
Launch vehicle
Mass (kg)
RCS (m²)

Purposes: comms

External: N2YO · Heavens-Above · Gunter

§ Orbital elements

Epoch: 2026-05-25T04:22:56.841312Z

Period
93.85 min
Inclination
53.1580°
Eccentricity
0.0001449
Mean motion
15.34412240 rev/d
Perigee alt
461.7 km
Apogee alt
463.7 km
Semi-major
6,840.8 km
B*
6.1528e-4
RAAN
221.1002°
Arg perigee
89.3403°
Mean anomaly
270.7766°
Rev number
3,144

§ Raw data

STARLINK-356571 66399U 25257V   26145.18260233  .00020477  00000+0  61528-3 0  99912 66399  53.1580 221.1002 0001449  89.3403 270.7766 15.34412240 31443

JSON: /api/v1/satellites/66399 · /tle

For live sub-satellite position, see the globe view (requires WebGL).

§ Visibility from observer

Set your observer location to see the next 7 days of passes ≥ 10°. The values pass through the URL so the page stays shareable.

No JS? Fill the form by hand. The geolocation button needs JavaScript.